sat.trackr.live / text

‹ back to catalog

STARLINK-11577 [DTC]

NORAD 63013 · 2025-032J

PAYLOAD ACTIVE UNKNOWN

§ Identity

Operator
Country
US
Launch date
2025-02-15
Launch site
AFETR
Launch vehicle
Mass (kg)
RCS (m²)

Purposes: comms

External: N2YO · Heavens-Above · Gunter

§ Orbital elements

Epoch: 2026-09-21T21:53:59.080704Z

Period
91.67 min
Inclination
43.0000°
Eccentricity
0.0001675
Mean motion
15.70851876 rev/d
Perigee alt
355.3 km
Apogee alt
357.6 km
Semi-major
6,734.6 km
B*
8.7272e-4
RAAN
92.6556°
Arg perigee
265.1586°
Mean anomaly
94.9091°
Rev number
9,307

§ Raw data

STARLINK-11577 [DTC]1 63013U 25032J   26264.91248936  .00113126  00000+0  87272-3 0  99992 63013  43.0000  92.6556 0001675 265.1586  94.9091 15.70851876 93076

JSON: /api/v1/satellites/63013 · /tle

For live sub-satellite position, see the globe view (requires WebGL).

§ Visibility from observer

Set your observer location to see the next 7 days of passes ≥ 10°. The values pass through the URL so the page stays shareable.

No JS? Fill the form by hand. The geolocation button needs JavaScript.